Погода в Петропавловске

Россия / Республика Саха (Якутия)     60°22′10″N   134°27′25″E
темп.,
°C
ветер,
м/с
пор.,
м/с
влажн.,
%
обл.,
%
осадки,
мм/ч
давл.,
гПа
погр.,
м
27 февраля, сб
сб2700:00−33в11990 0.0 103419
03:00−34в11990 0.0 103319
06:00−35всв111000 0.0 103219
09:00−30всв12960 0.0 1030100
12:00−23всв238947 0.0 1028324
15:00−21всв369249 0.0 1023389
18:00−26св129790 0.0 102220
21:00−25всв239595 0.0 101872
28 февраля, вс
вс2800:00−26всв2392100 0.0 101665
03:00−26всв2289100 0.0 101434
06:00−24ююв1294100 0.0 101547
09:00−21юз3696100 0.1 1017492
12:00−21зюз3692100 0.3 1019690
15:00−22з4687100 0.3 1020843
18:00−24з1296100 0.1 102434
21:00−24з3893100 0.1 1025399
1 марта, пн
пн100:00−29зюз2696100 0.0 1026153
03:00−30зюз2597100 0.0 1027127
06:00−32зюз2297100 0.0 102833
09:00−30зюз249699 0.0 1028183
12:00−25зсз248697 0.0 1027896
15:00−25зсз348599 0.1 10261063
18:00−27зсз2295100 0.1 102722
21:00−30зсз1296100 0.1 102720
2 марта, вт
вт200:00−33з129785 0.0 102719
03:00−33з129891 0.0 102724
06:00−32з1296100 0.0 102793
09:00−30зсз2596100 0.1 1027332
12:00−27зсз2492100 0.1 1026632
15:00−26сз2491100 0.3 1026808
18:00−28сз1199100 0.1 102619
21:00−28сз1199100 0.2 102719
3 марта, ср
ср300:00−29зсз1199100 0.1 102619
03:00−30зсз0199100 0.1 102519
06:00−30з0098100 0.1 102519
09:00−28сз0196100 0.1 1024171
12:00−25ссз1286100 0.0 1022674
15:00−25ссз2284100 0.1 1020874
18:00−30с1197100 0.0 101919
21:00−32зсз1199100 0.1 101919